COSMOS 249 DEB, 3584

Orbit data source: Space-Track

COSMOS 249 DEB, 3584 is space debris in LEO originally from a launch on Sun, 20 Oct 1968 UTC launched from the Tyuratam Missile And Space Complex (TTMTR). Debris objects in space refer to the collection of defunct objects orbiting the Earth. Examples of debris include non-operational satellites, rocket bodies, and fragments generated from explosions, collisions, or faulty payload assembly.

Loading next visibility...
Identifier
3584, 1968-091S
Orbit
LEO
Country
Flag of CISCIS
Related business
Manufacturer
Unknown
Mission
Spacecraft
Bus & Motor
Unknown
Mass
Unknown
Launch date (UTC)
1968-10-20 (58 years ago)
Launch vehicle
Unknown
Launch site
Tyuratam Missile And Space Complex (TTMTR)
Object type
Payload
Rocket body
Debris
Shape & HBR
Unknown shape, 0.1 m
Radar Cross Section
Small (<0.1 m²)

Expand to show TLE details & history
Last TLE update: 16 hours ago

TLE from 16 hours ago
0 COSMOS 249 DEB
1  3584U 68091S   26133.25058882  .00002777  00000-0  32987-3 0  9992
2  3584  62.2925  87.4604 0269010 207.4725 151.1915 14.64330754857787
Epoch: 2026-05-13T06:00Z
TLE epoch observation values (Epoch: 2026-05-13T06:00:50.874Z)
Latitude
0.00003°
Longitude
126.23514°
Altitude
848.503 km
Speed
7.34 km/s
True Right ascension
05h 49m 50s
True Declination
0° 00' 00"
Sunlit
Object was in daylight at epoch
Visualization orbit readout
Latitude
Unknown
Longitude
Unknown
Altitude
Unknown
Speed
Unknown
Apparent Right ascension
Unknown
Apparent Declination
Unknown
Sunlit
N/A
Visualization observer readout
Local Sidereal Time
06:14:18
Azimuth
Unknown
Elevation
Unknown
Doppler factor
Unknown
Orbital elements
Apogee altitude
867.952 km
Perigee altitude
488.311 km
Semi-major axis
7,056.269 km
Eccentricity
0.0269
Inclination
62.2925°
RAAN
87.4604°
Arg. of periapsis
207.4725°
True anomaly
152.63425°
Mean anomaly
151.1915°
Eccentric anomaly
151.91707°
Mean motion
3.66168 °/min
Orbital period
98.32 mins
BSTAR
0.00032987
Loading maneuver chart data...
Computing Atmospheric mass density...

Documentation

Showing up to 5 results
|